Flag for Iran Weather past 2 weeks in Esfahãn, Iran

Now
41 °F

Clear.


Feels Like: 41 °F
Forecast: 40 / 63 °F
Wind: No wind

Location: Esfahan

Current Time: Jan 30, 2015 at 10:10:31 PM

Latest Report: Jan 30, 2015 at 9:30 PM


Visibility: 10 mi

Pressure: 30.04 "Hg

Humidity: 61%

Dew point: 28 °F

Location of EsfahãnLocation

Historic Weather in Esfahãn — Graph

°F

Esfahãn temperature yesterday

Maximum temperature yesterday: 70 °F (at 2:00 PM)
Minimum temperature yesterday: 28 °F (at 7:30 AM)
Average temperature yesterday: 48 °F

Past Weeks' High & Low Weather Summary

 TemperatureHumidityPressure
High70 °F (Jan 29, 2:00 PM)93% (Jan 18, 6:30 AM)30.33 "Hg (Jan 18, 6:30 AM)
Low10 °F (Jan 21, 6:00 AM)12% (Jan 29, 2:00 PM)29.95 "Hg (Jan 29, 4:30 AM)
Average39 °F46%30.13 "Hg
* Reported Jan 15 8:30 PM — Jan 30 9:00 PM, Esfahãn, Weather by CustomWeather, © 2014

Note: Actual official high and low records may vary slightly from our data, if they occured in-between our weather recording intervals... More about our weather records

Advertising

Esfahãn weather history for previous 24 hours

 ConditionsComfort  
Time TempWeatherWind HumidityBarometerVisibility
9:00 PM
Jan 30
43 °FClear.5 mph57%30.04 "Hg10 mi
8:30 PM45 °FClear.No wind57%30.07 "Hg10 mi
8:00 PM45 °FClear.5 mph61%30.07 "Hg10 mi
7:30 PM45 °FClear.No wind53%30.07 "Hg10 mi
7:00 PM48 °FClear.5 mph54%30.07 "Hg10 mi
6:30 PM50 °FClear.7 mph54%30.04 "Hg10 mi
6:00 PM52 °FPassing clouds.7 mph47%30.04 "Hg5 mi
5:30 PM55 °FPassing clouds.7 mph44%30.04 "Hg4 mi
5:00 PM57 °FPassing clouds.7 mph44%30.04 "Hg4 mi
4:30 PM61 °FScattered clouds.No wind39%30.04 "Hg4 mi
4:00 PM59 °FScattered clouds.5 mph45%30.04 "Hg4 mi
3:30 PM59 °FPassing clouds.No wind42%30.04 "Hg4 mi
3:00 PM57 °FPassing clouds.7 mph48%30.07 "Hg4 mi
2:30 PM59 °FHaze.9 mph42%30.07 "Hg3 mi
2:00 PM57 °FBroken clouds.5 mph44%30.07 "Hg3 mi
1:30 PM55 °FBroken clouds.7 mph44%30.09 "Hg3 mi
1:00 PM55 °FMore clouds than sun.7 mph38%30.09 "Hg3 mi
12:30 PM54 °FMore clouds than sun.7 mph35%30.12 "Hg3 mi
12:00 PM50 °FMore clouds than sun.7 mph37%30.12 "Hg2 mi
11:30 AM48 °FOvercast.5 mph40%30.15 "Hg1 mi
11:00 AM46 °FOvercast.5 mph40%30.15 "Hg1 mi
10:30 AM46 °FOvercast.5 mph40%30.15 "Hg2 mi
10:00 AM45 °FOvercast.5 mph42%30.15 "Hg2 mi
9:30 AM43 °FOvercast.5 mph39%30.12 "Hg2 mi
9:00 AM43 °FMostly cloudy.No wind42%30.12 "Hg2 mi
8:30 AM41 °FMostly cloudy.No wind42%30.12 "Hg2 mi
8:00 AM39 °FPartly sunny.No wind45%30.09 "Hg4 mi
7:30 AM37 °FPartly sunny.5 mph52%30.09 "Hg4 mi
7:00 AM36 °FPartly cloudy.7 mph48%30.09 "Hg4 mi
6:30 AM37 °FClear.5 mph48%30.07 "Hg4 mi
6:00 AM37 °FClear.7 mph48%30.07 "Hg4 mi
5:30 AM34 °FClear.5 mph48%30.04 "Hg4 mi
5:00 AM34 °FClear.5 mph44%30.04 "Hg4 mi
4:30 AM34 °FClear.5 mph48%30.04 "Hg4 mi
4:00 AM30 °FClear.5 mph47%30.04 "Hg10 mi
3:30 AM30 °FClear.5 mph47%30.04 "Hg10 mi
3:00 AM36 °FClear.5 mph44%30.04 "Hg10 mi
2:30 AM32 °FClear.9 mph40%30.04 "Hg10 mi
2:00 AM39 °FClear.5 mph36%30.01 "Hg10 mi
1:30 AM37 °FClear.5 mph41%30.01 "Hg10 mi
1:00 AM37 °FClear.5 mph35%30.01 "Hg10 mi
12:30 AM37 °FClear.No wind38%30.04 "Hg10 mi
12:00 AM39 °FClear.No wind39%30.04 "Hg10 mi
11:30 PM
Jan 29
43 °FClear.No wind34%30.01 "Hg10 mi
11:00 PM46 °FClear.5 mph32%30.01 "Hg10 mi
10:30 PM46 °FClear.No wind32%30.04 "Hg10 mi
10:00 PM46 °FClear.5 mph32%30.04 "Hg10 mi
Weather by CustomWeather, © 2014

See weather overviewHow to use our weather pages